DW6201 Weather Reports


time (UTC)temp
C
wind
direction
speed
KPH
gust
KPH
rain 1hr
cm
rain 24hr
cm
rain mn
cm
humidity
%
barometer
mb
20260906182501 24 0 0.0 0.0 0.00 0.00 0.00 81 1020.0
20260906182000 24 0 0.0 0.0 0.00 0.00 0.00 81 1020.0
20260906181501 24 0 0.0 0.0 0.00 0.00 0.00 81 1019.6
20260906181001 24 0 0.0 0.0 0.00 0.00 0.00 81 1019.6
20260906180501 24 0 0.0 0.0 0.00 0.00 0.00 81 1019.6
20260906180001 24 0 0.0 0.0 0.00 0.00 0.00 80 1019.6
20260906175500 24 0 0.0 0.0 0.00 0.00 0.00 80 1020.0
20260906175000 24 0 0.0 0.0 0.00 0.00 0.00 81 1020.0
20260906174500 24 211 1.6 1.6 0.00 0.00 0.00 80 1020.3
20260906174001 24 0 0.0 0.0 0.00 0.00 0.00 80 1020.3
20260906173501 24 198 1.6 1.6 0.00 0.00 0.00 81 1020.3
20260906173000 24 0 0.0 0.0 0.00 0.00 0.00 81 1020.3
20260906172501 24 0 0.0 0.0 0.00 0.00 0.00 81 1020.3
20260906172001 24 0 0.0 0.0 0.00 0.00 0.00 81 1020.3
20260906171501 24 0 0.0 0.0 0.00 0.00 0.00 81 1020.7
20260906171000 24 0 0.0 0.0 0.00 0.00 0.00 82 1020.7
20260906170500 23 0 0.0 0.0 0.00 0.00 0.00 82 1020.7
20260906170000 23 0 0.0 0.0 0.00 0.00 0.00 82 1020.7
20260906165501 23 0 0.0 0.0 0.00 0.00 0.00 82 1020.7
20260906165000 23 0 0.0 0.0 0.00 0.00 0.00 83 1020.7
20260906164501 23 0 0.0 0.0 0.00 0.00 0.00 83 1020.7
20260906164001 22 0 0.0 0.0 0.00 0.00 0.00 83 1020.7
20260906163500 22 0 0.0 0.0 0.00 0.00 0.00 83 1020.7
20260906163001 22 0 0.0 0.0 0.00 0.00 0.00 83 1020.7
20260906162501 22 0 0.0 0.0 0.00 0.00 0.00 83 1020.7
20260906162000 22 0 0.0 0.0 0.00 0.00 0.00 83 1020.7
20260906161500 22 0 0.0 0.0 0.00 0.00 0.00 83 1020.7
20260906161000 21 0 0.0 0.0 0.00 0.00 0.00 83 1020.7
20260906160500 21 291 1.6 1.6 0.00 0.00 0.00 83 1020.7
20260906160001 21 0 0.0 0.0 0.00 0.00 0.00 83 1020.7
20260906155500 21 0 0.0 0.0 0.00 0.00 0.00 83 1020.7
20260906155001 21 0 0.0 0.0 0.00 0.00 0.00 83 1020.7
20260906154501 21 0 0.0 0.0 0.00 0.00 0.00 83 1020.7
20260906154001 21 87 1.6 1.6 0.00 0.00 0.00 83 1020.7
20260906153501 21 0 0.0 0.0 0.00 0.00 0.00 83 1021.0
20260906153000 21 0 0.0 0.0 0.00 0.00 0.00 83 1021.0
20260906152501 21 0 0.0 0.0 0.00 0.00 0.00 83 1021.0
20260906152001 21 0 0.0 0.0 0.00 0.00 0.00 83 1021.0
20260906151500 21 71 3.2 3.2 0.00 0.00 0.00 82 1021.0
20260906151001 21 0 0.0 0.0 0.00 0.00 0.00 82 1021.0
20260906150501 21 0 0.0 0.0 0.00 0.00 0.00 82 1020.7
20260906150000 21 236 1.6 1.6 0.00 0.00 0.00 82 1020.7
20260906145500 21 0 0.0 0.0 0.00 0.00 0.00 82 1020.7
20260906145000 21 0 0.0 0.0 0.00 0.00 0.00 82 1020.7
20260906144501 21 226 4.8 4.8 0.00 0.00 0.00 82 1020.7
20260906144001 21 0 0.0 0.0 0.00 0.00 0.00 81 1020.7
20260906143501 21 0 0.0 0.0 0.00 0.00 0.00 81 1020.7
20260906143000 21 0 0.0 0.0 0.00 0.00 0.00 81 1020.7
20260906142501 21 0 0.0 0.0 0.00 0.00 0.00 81 1020.7
20260906142001 21 0 0.0 0.0 0.00 0.00 0.00 81 1020.7
20260906141500 21 0 0.0 0.0 0.00 0.00 0.00 81 1020.7
20260906141000 21 0 0.0 0.0 0.00 0.00 0.00 81 1020.7
20260906140501 20 0 0.0 0.0 0.00 0.00 0.00 80 1020.7
20260906140001 20 0 0.0 0.0 0.00 0.00 0.00 80 1020.7
20260906135500 20 0 0.0 0.0 0.00 0.00 0.00 80 1020.7
20260906135001 20 0 0.0 0.0 0.00 0.00 0.00 80 1020.7
20260906134501 20 0 0.0 0.0 0.00 0.00 0.00 80 1020.3
20260906134001 20 0 0.0 0.0 0.00 0.00 0.00 80 1020.3
20260906133501 20 0 0.0 0.0 0.00 0.00 0.00 80 1020.3
20260906133001 20 0 0.0 0.0 0.00 0.00 0.00 80 1020.7
20260906132501 20 194 1.6 1.6 0.00 0.00 0.00 80 1020.7
20260906132001 20 0 0.0 0.0 0.00 0.00 0.00 80 1020.3
20260906131501 20 0 0.0 0.0 0.00 0.00 0.00 81 1020.3
20260906131001 20 0 0.0 0.0 0.00 0.00 0.00 81 1020.3
20260906130501 20 0 0.0 0.0 0.00 0.00 0.00 80 1020.3
20260906130001 20 0 0.0 0.0 0.00 0.00 0.00 80 1020.0
20260906125501 19 0 0.0 0.0 0.00 0.00 0.00 81 1020.0
20260906125001 19 0 0.0 0.0 0.00 0.00 0.00 81 1020.0
20260906124501 19 0 0.0 0.0 0.00 0.00 0.00 81 1020.0
20260906124000 19 0 0.0 0.0 0.00 0.00 0.00 81 1020.0
20260906123500 19 92 1.6 1.6 0.00 0.00 0.00 81 1020.0
20260906123000 19 0 0.0 0.0 0.00 0.00 0.00 81 1020.0
20260906122501 19 0 0.0 0.0 0.00 0.00 0.00 81 1020.0
20260906122001 19 0 0.0 0.0 0.00 0.00 0.00 81 1019.6
20260906121500 19 0 0.0 0.0 0.00 0.00 0.00 81 1019.6
20260906121000 19 0 0.0 0.0 0.00 0.00 0.00 81 1019.6
20260906120501 19 0 0.0 0.0 0.00 0.00 0.00 81 1020.0
20260906120001 19 0 0.0 0.0 0.00 0.00 0.00 81 1019.6
20260906115500 19 0 0.0 0.0 0.00 0.00 0.00 81 1019.6
20260906115000 19 0 0.0 0.0 0.00 0.00 0.00 82 1019.6
20260906114501 18 0 0.0 0.0 0.00 0.00 0.00 82 1019.6
20260906114001 18 0 0.0 0.0 0.00 0.00 0.00 82 1019.6
20260906113501 19 0 0.0 0.0 0.00 0.00 0.00 82 1019.6
20260906113000 19 0 0.0 0.0 0.00 0.00 0.00 82 1019.6
20260906112500 19 0 0.0 0.0 0.00 0.00 0.00 82 1019.6
20260906112001 19 0 0.0 0.0 0.00 0.00 0.00 82 1019.6
20260906111500 19 0 0.0 0.0 0.00 0.00 0.00 82 1019.6
20260906111000 19 0 0.0 0.0 0.00 0.00 0.00 82 1019.3
20260906110500 19 0 0.0 0.0 0.00 0.00 0.00 82 1019.3
20260906110001 19 0 0.0 0.0 0.00 0.00 0.00 82 1019.3
20260906105500 19 0 0.0 0.0 0.00 0.00 0.00 82 1019.3
20260906105000 19 0 0.0 0.0 0.00 0.00 0.00 82 1019.6
20260906104500 19 0 0.0 0.0 0.00 0.00 0.00 82 1019.6
20260906104001 19 0 0.0 0.0 0.00 0.00 0.00 82 1019.6
20260906103501 20 0 0.0 0.0 0.00 0.00 0.00 82 1019.3
20260906103001 20 0 0.0 0.0 0.00 0.00 0.00 82 1019.3
20260906102501 20 0 0.0 0.0 0.00 0.00 0.00 82 1019.3
20260906102001 20 0 0.0 0.0 0.00 0.00 0.00 82 1019.3
20260906101500 20 0 0.0 0.0 0.00 0.00 0.00 82 1019.3
20260906101001 20 0 0.0 0.0 0.00 0.00 0.00 82 1019.3
20260906100500 20 0 0.0 0.0 0.00 0.00 0.00 82 1019.0
20260906100000 20 0 0.0 0.0 0.00 0.00 0.00 82 1019.0
20260906095501 20 0 0.0 0.0 0.00 0.00 0.00 82 1019.0
20260906095000 20 0 0.0 0.0 0.00 0.00 0.00 82 1019.0
20260906094500 20 0 0.0 0.0 0.00 0.00 0.00 82 1019.0
20260906094001 20 0 0.0 0.0 0.00 0.00 0.00 82 1019.0
20260906093501 20 0 0.0 0.0 0.00 0.00 0.00 82 1018.6
20260906093000 20 0 0.0 0.0 0.00 0.00 0.00 82 1018.6
20260906092500 20 0 0.0 0.0 0.00 0.00 0.00 82 1018.6
20260906092000 20 0 0.0 0.0 0.00 0.00 0.00 82 1018.6
20260906091500 20 0 0.0 0.0 0.00 0.00 0.00 82 1018.3
20260906091001 20 0 0.0 0.0 0.00 0.00 0.00 82 1018.3
20260906090501 20 0 0.0 0.0 0.00 0.00 0.00 82 1018.3
20260906090001 20 0 0.0 0.0 0.00 0.00 0.00 83 1018.3
20260906085501 20 0 0.0 0.0 0.00 0.00 0.00 83 1018.3
20260906085000 20 0 0.0 0.0 0.00 0.00 0.00 83 1018.3
20260906084501 20 0 0.0 0.0 0.00 0.00 0.00 83 1018.3
20260906084000 20 0 0.0 0.0 0.00 0.00 0.00 83 1018.3
20260906083500 20 0 0.0 0.0 0.00 0.00 0.00 83 1018.3
20260906083000 21 0 0.0 0.0 0.00 0.00 0.00 83 1018.6
20260906082501 21 0 0.0 0.0 0.00 0.00 0.00 83 1018.3
20260906082001 21 0 0.0 0.0 0.00 0.00 0.00 83 1018.3
20260906081500 21 0 0.0 0.0 0.00 0.00 0.00 83 1018.3
20260906081000 21 0 0.0 0.0 0.00 0.00 0.00 83 1018.3
20260906080500 21 0 0.0 0.0 0.00 0.00 0.00 83 1018.3
20260906080001 21 0 0.0 0.0 0.00 0.00 0.00 83 1018.3
20260906075500 21 0 0.0 0.0 0.00 0.00 0.00 83 1018.3
20260906075001 21 0 0.0 0.0 0.00 0.00 0.00 83 1018.3
20260906074500 21 0 0.0 0.0 0.00 0.00 0.00 83 1018.3
20260906074000 21 0 0.0 0.0 0.00 0.00 0.00 83 1018.6
20260906073501 21 0 0.0 0.0 0.00 0.00 0.00 83 1018.6
20260906073001 21 0 0.0 0.0 0.00 0.00 0.00 83 1018.6
20260906072500 21 0 0.0 0.0 0.00 0.00 0.00 83 1018.6
20260906072001 21 0 0.0 0.0 0.00 0.00 0.00 83 1018.6
20260906071500 21 0 0.0 0.0 0.00 0.00 0.00 83 1018.6
20260906071000 21 0 0.0 0.0 0.00 0.00 0.00 83 1018.6
20260906070500 21 0 0.0 0.0 0.00 0.00 0.00 83 1018.6
20260906070001 21 0 0.0 0.0 0.00 0.00 0.00 83 1018.6
20260906065501 21 0 0.0 0.0 0.00 0.00 0.00 83 1018.6
20260906065001 21 0 0.0 0.0 0.00 0.00 0.00 83 1019.0
20260906064500 21 0 0.0 0.0 0.00 0.00 0.00 83 1019.0
20260906064001 21 0 0.0 0.0 0.00 0.00 0.00 83 1019.0
20260906063500 21 0 0.0 0.0 0.00 0.00 0.00 83 1019.0
20260906063001 21 0 0.0 0.0 0.00 0.00 0.00 83 1019.0
20260906062501 21 0 0.0 0.0 0.00 0.00 0.00 83 1019.0
20260906062000 22 0 0.0 0.0 0.00 0.00 0.00 83 1019.0
20260906061500 22 0 0.0 0.0 0.00 0.00 0.00 83 1019.0
20260906061000 22 0 0.0 0.0 0.00 0.00 0.00 83 1019.0
20260906060501 22 0 0.0 0.0 0.00 0.00 0.00 83 1019.0
20260906060000 22 0 0.0 0.0 0.00 0.00 0.00 83 1019.0
20260906055500 22 0 0.0 0.0 0.00 0.00 0.00 83 1019.0
20260906055001 22 0 0.0 0.0 0.00 0.00 0.00 83 1019.0
20260906054500 22 0 0.0 0.0 0.00 0.00 0.00 83 1019.0
20260906054001 22 0 0.0 0.0 0.00 0.00 0.00 83 1019.0
20260906053501 22 0 0.0 0.0 0.00 0.00 0.00 83 1019.0
20260906053001 22 0 0.0 0.0 0.00 0.00 0.00 83 1019.0
20260906052500 22 0 0.0 0.0 0.00 0.00 0.00 83 1019.0
20260906052001 22 0 0.0 0.0 0.00 0.00 0.00 83 1019.3
20260906051500 22 0 0.0 0.0 0.00 0.00 0.00 83 1019.3
20260906051001 22 0 0.0 0.0 0.00 0.00 0.00 83 1019.0
20260906050500 22 0 0.0 0.0 0.00 0.00 0.00 83 1019.0
20260906050000 22 0 0.0 0.0 0.00 0.25 0.00 83 1019.3
20260906045501 22 0 0.0 0.0 0.00 0.25 0.00 83 1019.3
20260906045000 22 0 0.0 0.0 0.00 0.25 0.00 83 1019.3
20260906044501 22 0 0.0 0.0 0.00 0.25 0.00 83 1019.3
20260906044000 22 0 0.0 0.0 0.00 0.25 0.00 83 1019.3
20260906043501 22 0 0.0 0.0 0.00 0.25 0.00 83 1019.3
20260906043001 22 0 0.0 0.0 0.00 0.25 0.00 83 1019.3
20260906042501 22 0 0.0 0.0 0.00 0.25 0.00 83 1019.3
20260906042001 22 0 0.0 0.0 0.00 0.25 0.00 83 1019.3
20260906041500 22 0 0.0 0.0 0.00 0.25 0.00 83 1019.3
20260906041001 22 0 0.0 0.0 0.00 0.25 0.00 83 1019.0
20260906040501 22 0 0.0 0.0 0.00 0.25 0.00 83 1019.0
20260906040000 22 0 0.0 0.0 0.00 0.25 0.00 83 1019.0
20260906035501 22 0 0.0 0.0 0.00 0.25 0.00 83 1019.0
20260906035001 22 0 0.0 0.0 0.00 0.25 0.00 83 1019.0
20260906034501 22 0 0.0 0.0 0.00 0.25 0.00 83 1019.0
20260906034001 22 0 0.0 0.0 0.00 0.25 0.00 83 1019.0
20260906033500 22 0 0.0 0.0 0.00 0.25 0.00 83 1019.0
20260906033001 22 0 0.0 0.0 0.00 0.25 0.00 83 1019.0
20260906032500 22 0 0.0 0.0 0.00 0.25 0.00 83 1019.3
20260906032001 22 0 0.0 0.0 0.00 0.25 0.00 83 1019.3
20260906031501 22 0 0.0 0.0 0.00 0.25 0.00 83 1019.3
20260906031001 22 0 0.0 0.0 0.00 0.25 0.00 83 1019.3
20260906030501 22 0 0.0 0.0 0.00 0.25 0.00 83 1019.3
20260906030001 22 0 0.0 0.0 0.00 0.25 0.00 83 1019.3
20260906025500 22 0 0.0 0.0 0.00 0.25 0.00 83 1019.3
20260906025001 22 0 0.0 0.0 0.00 0.25 0.00 83 1019.0
20260906024500 23 0 0.0 0.0 0.00 0.25 0.00 83 1019.0
20260906024001 23 0 0.0 0.0 0.00 0.25 0.00 82 1019.0
20260906023500 23 0 0.0 0.0 0.00 0.25 0.00 83 1019.0
20260906023001 23 0 0.0 0.0 0.00 0.25 0.00 83 1019.0
20260906022500 23 0 0.0 0.0 0.00 0.25 0.00 82 1018.6
20260906022001 23 0 0.0 0.0 0.00 0.25 0.00 82 1018.6
20260906021501 23 0 0.0 0.0 0.00 0.25 0.00 82 1018.6
20260906021001 23 0 0.0 0.0 0.00 0.25 0.00 82 1018.3
20260906020500 23 0 0.0 0.0 0.00 0.25 0.00 82 1018.3
20260906020001 23 0 0.0 0.0 0.00 0.25 0.00 82 1018.3
20260906015500 23 0 0.0 0.0 0.00 0.25 0.00 82 1018.3
20260906015001 23 0 0.0 0.0 0.00 0.25 0.00 82 1017.9
20260906014501 23 0 0.0 0.0 0.00 0.25 0.00 82 1017.9
20260906014001 23 0 0.0 0.0 0.00 0.25 0.00 82 1017.9
20260906013501 24 0 0.0 0.0 0.00 0.25 0.00 82 1017.6
20260906013000 24 0 0.0 0.0 0.00 0.25 0.00 82 1017.6
20260906012501 24 0 0.0 0.0 0.00 0.25 0.00 81 1017.6
20260906012000 24 0 0.0 0.0 0.00 0.25 0.00 81 1017.6
20260906011501 24 0 0.0 0.0 0.00 0.25 0.00 81 1017.6
20260906011000 24 0 0.0 0.0 0.00 0.25 0.00 81 1017.6
20260906010501 24 0 0.0 0.0 0.00 0.25 0.00 81 1017.6
20260906010001 24 0 0.0 0.0 0.00 0.25 0.00 81 1017.6
20260906005501 25 0 0.0 0.0 0.00 0.25 0.00 81 1017.6
20260906005000 25 0 0.0 0.0 0.00 0.25 0.00 80 1017.6
20260906004501 25 0 0.0 0.0 0.00 0.25 0.00 80 1017.6
20260906004001 25 0 0.0 0.0 0.00 0.25 0.00 80 1017.6
20260906003501 25 0 0.0 0.0 0.00 0.25 0.00 80 1017.6
20260906003001 25 0 0.0 0.0 0.00 0.25 0.00 80 1017.6
20260906002501 25 0 0.0 0.0 0.00 0.25 0.00 80 1017.3
20260906002001 25 0 0.0 0.0 0.00 0.25 0.00 79 1017.3
20260906001500 25 0 0.0 0.0 0.00 0.25 0.00 79 1017.3
20260906001001 25 0 0.0 0.0 0.00 0.25 0.00 79 1017.3
20260906000500 25 0 0.0 0.0 0.00 0.25 0.00 79 1017.3
20260906000001 25 0 0.0 0.0 0.00 0.25 0.00 79 1017.3
20260905235501 25 0 0.0 0.0 0.00 0.25 0.00 79 1017.3
20260905235001 25 61 1.6 1.6 0.00 0.25 0.00 79 1017.3
20260905234500 26 0 0.0 0.0 0.00 0.25 0.00 79 1017.3
20260905234001 26 0 0.0 0.0 0.00 0.25 0.00 79 1017.3
20260905233001 26 0 0.0 0.0 0.00 0.25 0.00 78 1017.3
20260905232500 26 0 0.0 0.0 0.00 0.25 0.00 78 1016.9
20260905232001 26 0 0.0 0.0 0.00 0.25 0.00 78 1017.3
20260905231501 26 0 0.0 0.0 0.00 0.25 0.00 78 1016.9
20260905231000 26 0 0.0 0.0 0.00 0.25 0.00 77 1016.9
20260905230501 26 327 3.2 3.2 0.00 0.25 0.00 77 1016.6
20260905230001 26 67 4.8 4.8 0.00 0.25 0.00 77 1016.6
20260905225501 26 0 0.0 0.0 0.00 0.25 0.00 77 1016.6
20260905225001 26 0 0.0 0.0 0.00 0.25 0.00 77 1016.6
20260905224501 26 67 4.8 4.8 0.00 0.25 0.00 77 1016.6
20260905224001 26 0 0.0 0.0 0.00 0.25 0.00 77 1016.9
20260905223501 26 98 11.3 11.3 0.00 0.25 0.00 77 1016.9
20260905223001 26 0 0.0 0.0 0.00 0.25 0.00 78 1016.6
20260905222501 26 0 0.0 0.0 0.00 0.25 0.00 78 1016.6
20260905222001 26 108 1.6 1.6 0.00 0.25 0.00 78 1016.6
20260905221501 26 79 4.8 4.8 0.00 0.25 0.00 78 1016.6
20260905221001 26 0 0.0 0.0 0.00 0.25 0.00 78 1016.3
20260905220501 26 303 1.6 1.6 0.00 0.25 0.00 78 1016.3
20260905220001 26 0 0.0 0.0 0.00 0.25 0.00 79 1016.3
20260905215501 26 0 0.0 0.0 0.00 0.25 0.00 79 1016.3
20260905215001 26 0 0.0 0.0 0.00 0.25 0.00 78 1016.3
20260905214500 26 0 0.0 0.0 0.00 0.25 0.00 79 1016.6
20260905214001 26 0 0.0 0.0 0.00 0.25 0.00 78 1016.6
20260905213500 26 0 0.0 0.0 0.00 0.25 0.00 79 1016.6
20260905213001 26 0 0.0 0.0 0.00 0.25 0.00 79 1016.6
20260905212501 26 0 0.0 0.0 0.00 0.25 0.00 78 1016.3
20260905212001 26 0 0.0 0.0 0.00 0.25 0.00 79 1016.6
20260905211500 26 0 0.0 0.0 0.00 0.25 0.00 79 1016.6
20260905211001 26 0 0.0 0.0 0.00 0.25 0.00 79 1016.6
20260905210501 26 0 0.0 0.0 0.00 0.25 0.00 79 1016.6
20260905210001 26 0 0.0 0.0 0.00 0.25 0.00 79 1016.6
20260905205500 26 0 0.0 0.0 0.00 0.25 0.00 79 1016.6
20260905205001 26 0 0.0 0.0 0.00 0.25 0.00 79 1016.6
20260905204500 26 0 0.0 0.0 0.00 0.25 0.00 80 1016.9
20260905204001 26 0 0.0 0.0 0.00 0.25 0.00 80 1016.6
20260905203501 26 0 0.0 0.0 0.00 0.25 0.00 80 1016.6
20260905203000 26 0 0.0 0.0 0.00 0.25 0.00 79 1016.9
20260905202501 26 0 0.0 0.0 0.00 0.25 0.00 79 1016.9
20260905202001 26 0 0.0 0.0 0.00 0.25 0.00 79 1016.9
20260905201501 26 0 0.0 0.0 0.00 0.25 0.00 79 1017.3
20260905201001 26 0 0.0 0.0 0.00 0.25 0.00 79 1017.3
20260905200500 26 0 0.0 0.0 0.00 0.25 0.00 79 1017.3
20260905200001 26 0 0.0 0.0 0.00 0.25 0.00 79 1017.3
20260905195501 26 0 0.0 0.0 0.00 0.25 0.00 79 1017.3
20260905195000 26 0 0.0 0.0 0.00 0.25 0.00 79 1017.6
20260905194501 26 0 0.0 0.0 0.00 0.25 0.00 79 1017.6
20260905194001 26 81 9.7 9.7 0.00 0.25 0.00 80 1017.6
20260905193501 26 40 1.6 1.6 0.00 0.25 0.00 80 1017.3
20260905193000 26 0 0.0 0.0 0.00 0.25 0.00 79 1017.3
20260905192500 26 0 0.0 0.0 0.00 0.25 0.00 79 1017.3
20260905192001 26 0 0.0 0.0 0.00 0.25 0.00 79 1017.6
20260905191501 26 0 0.0 0.0 0.00 0.25 0.00 79 1017.6
20260905191000 26 0 0.0 0.0 0.00 0.25 0.00 79 1017.9
20260905190500 27 0 0.0 0.0 0.00 0.25 0.00 78 1017.9
20260905190000 27 0 0.0 0.0 0.00 0.25 0.00 79 1017.9
20260905185501 27 0 0.0 0.0 0.00 0.25 0.00 80 1017.9
20260905185000 26 0 0.0 0.0 0.00 0.25 0.00 80 1017.9
20260905184500 26 0 0.0 0.0 0.00 0.25 0.00 81 1017.9
20260905184000 26 0 0.0 0.0 0.00 0.25 0.00 81 1017.9
20260905183501 26 0 0.0 0.0 0.00 0.25 0.00 81 1018.3
20260905183000 26 0 0.0 0.0 0.00 0.25 0.00 82 1018.3